Flag for Germany Weather past 2 weeks in Waren (Müritz), Mecklenburg-Western Pomerania, Germany

Now
64 °F

Scattered clouds.


Feels Like: 64 °F
Forecast: 59 / 84 °F
Wind: 6 mph from Southwest

Location: Laage

Current Time: Aug 29, 2015 at 11:31:11 AM

Latest Report: Aug 29, 2015 at 10:20 AM


Visibility: N/A

Pressure: 30.24 "Hg

Humidity: 68%

Dew point: 54 °F

Location of Waren (Müritz)Location

Historic Weather in Waren (Müritz) — Graph

°F

Waren (Müritz) temperature yesterday

Maximum temperature yesterday: 68 °F (at 3:20 PM)
Minimum temperature yesterday: 57 °F (at 1:20 AM)
Average temperature yesterday: 61 °F

Past Weeks' High & Low Weather Summary

 TemperatureHumidityPressure
High86 °F (Aug 14, 3:20 PM)100% (Aug 16, 5:20 AM)30.30 "Hg (Aug 16, 5:20 AM)
Low50 °F (Aug 20, 6:20 AM)23% (Aug 21, 3:20 PM)29.68 "Hg (Aug 15, 4:20 AM)
Average66 °F71%29.96 "Hg
* Reported Aug 14 9:20 AM — Aug 29 9:20 AM, Waren (Müritz), Weather by CustomWeather, © 2015

Note: Actual official high and low records may vary slightly from our data, if they occured in-between our weather recording intervals... More about our weather records

Advertising

Waren (Müritz) weather history for previous 24 hours

 ConditionsComfort  
Time TempWeatherWind HumidityBarometerVisibility
9:20 AM
Sat, Aug 29
61 °FPartly sunny.6 mph83%30.24 "HgN/A
7:20 AM54 °FFog.2 mph94%30.21 "Hg4 mi
6:20 AM52 °FFog.2 mph100%30.18 "HgN/A
5:20 AM54 °FFog.3 mph94%30.18 "HgN/A
4:20 AM55 °FCool.7 mph94%30.18 "HgN/A
3:20 AM57 °FCool.5 mph88%30.15 "HgN/A
2:20 AM57 °FPassing clouds.5 mph94%30.15 "HgN/A
1:20 AM57 °FPassing clouds.6 mph88%30.12 "HgN/A
12:20 AM59 °FPassing clouds.6 mph82%30.12 "HgN/A
11:20 PM
Fri, Aug 28
57 °FPassing clouds.6 mph88%30.12 "HgN/A
10:20 PM59 °FPassing clouds.7 mph82%30.12 "HgN/A
9:20 PM61 °FPassing clouds.7 mph77%30.09 "HgN/A
8:20 PM61 °FPassing clouds.6 mph83%30.07 "HgN/A
7:20 PM64 °FPassing clouds.8 mph68%30.07 "HgN/A
6:20 PM66 °FPassing clouds.9 mph60%30.04 "HgN/A
5:20 PM68 °FScattered clouds.12 mph60%30.04 "HgN/A
4:20 PM68 °FScattered clouds.9 mph60%30.04 "HgN/A
3:20 PM68 °FScattered clouds.10 mph60%30.04 "HgN/A
2:20 PM66 °FScattered clouds.9 mph64%30.01 "HgN/A
1:20 PM64 °FScattered clouds.9 mph73%30.01 "HgN/A
12:20 PM64 °FScattered clouds.8 mph73%30.01 "HgN/A
11:20 AM61 °FPartly sunny.12 mph83%29.98 "HgN/A
Weather by CustomWeather, © 2015

See weather overviewHow to use our weather pages